Regional Weather Roundup
Issued by NWS

Home | Current Version | Previous Version | Text Only | Print | Product List | Glossary On
Versions: 1 2 3 4 5 6 7 8 9 10 11 12 13 14 15 16 17 18 19 20 21 22 23 24 25 26 27 28 29 30 31 32 33 34 35 36 37 38 39 40 41 42 43 44 45 46 47 48 49 50
000
ASUS46 KPQR 050710
RWROR

OREGON REGIONAL WEATHER ROUNDUP
NATIONAL WEATHER SERVICE PORTLAND OR
1200 AM PDT WED AUG 05 2015

NOTE: "FAIR" INDICATES FEW OR NO CLOUDS BELOW 12,000 FEET WITH
NO SIGNIFICANT WEATHER AND/OR OBSTRUCTIONS TO VISIBILITY.

ORZ001>013-050800-
NORTHWEST OREGON


CITY           SKY/WX    TMP DP  RH WIND       PRES   REMARKS
ASTORIA        MOCLDY    58  55  90 SW3       30.08S
NEWPORT        CLEAR     52  50  93 N3        30.09S
PORTLAND       MOCLDY    62  51  67 NW8       30.04R
VANCOUVER WA   PTCLDY    62  50  64 NW9       30.04R
SCAPPOOSE      PTCLDY    61  50  67 N8        30.04R
HILLSBORO      PTCLDY    57  49  74 NW9       30.04R
AURORA         CLEAR     60  50  69 NW7       30.05R
MCMINNVILLE    PTCLDY    62  49  62 CALM      30.05R
SALEM          CLEAR     62  49  62 N8        30.02R
CORVALLIS      CLEAR     61  48  63 W10       30.04R
EUGENE         CLEAR     63  47  55 CALM      30.02R
$$

ORZ021-028-050800-
SOUTHWEST OREGON


CITY           SKY/WX    TMP DP  RH WIND       PRES   REMARKS
NORTH BEND     CLEAR     55  54  94 NW5       30.09S
BROOKINGS      CLOUDY    59  59 100 VRB3      30.06F
ROSEBURG       CLEAR     67  49  52 CALM      30.02R
SEXTON SUMMIT  CLEAR     56  46  69 N8        30.08S
MEDFORD        PTCLDY    76  53  44 NW6       29.97R
$$

ORZ014>016-041-050800-
COLUMBIA GORGE


CITY           SKY/WX    TMP DP  RH WIND       PRES   REMARKS
TROUTDALE      PTCLDY    62  51  67 VRB6      30.03R
THE DALLES     CLEAR     70  48  45 NW14      29.92R
$$

ORZ029>031-041-044-049-050-061>064-502-503-505>511-050800-
EASTERN OREGON


CITY           SKY/WX    TMP DP  RH WIND       PRES   REMARKS
REDMOND        CLEAR     60  35  39 CALM      30.02S
BEND           CLEAR     63  41  45 N6        30.04F
PRINEVILLE     CLEAR     61  34  36 NW8       30.02S
KLAMATH FALLS  CLOUDY    63  50  62 SW16G22   30.09R THUNDER
LAKEVIEW       CLOUDY    64  37  36 S7        30.08F
HERMISTON      CLEAR     72  45  37 SW17      29.86R
PENDLETON      CLEAR     72  39  30 W21G30    29.90R
JOHN DAY       CLEAR     69  32  26 NW3       30.02R
MEACHAM        PTCLDY    53  38  56 CALM      30.03R
LA GRANDE      MOCLDY    72  30  21 N6        29.95R
BAKER CITY     PTCLDY    65  40  39 VRB3      29.97R
BURNS          MOCLDY    69  41  36 W10       30.00R
ROME             N/A     83  32  16 SW13G26   29.95F
ONTARIO        MOCLDY    75  53  46 NW8       29.84R
$$


USA.gov is the U.S. government's official web portal to all federal, state and local government web resources and services.